User: anonymous
Location: Dover
(39.1580°N, 75.5250°W)
Time: 19:54:31
(UTC-04:00)
Language:

SeaSat 1 - Orbit

View from above orbital plane
View from above orbital plane
View from above satellite
View from above satellite

Ground track
Ground track

The orbit data is extracted from the following two-line orbital elements,

1 10967U 78064A   14113.82879396  .00000456  00000-0  17671-3 0  2667
2 10967 107.9908 057.7865 0000952 292.2191 132.8600 14.42990436880636
Epoch (UTC): 23 April 2014 19:53:27
Eccentricity: 0.0000952
inclination: 107.9908°
perigee height: 748 km
apogee height: 749 km
right ascension of ascending node: 57.7865°
argument of perigee: 292.2191°
revolutions per day: 14.42990436
mean anomaly at epoch: 132.8600°
orbit number at epoch: 88063

The dashed part of the orbit path shows where the satellite is in the earth's shadow,  

DLR